TITAN 3C TRANSTAGE DEB, 26525

Orbit data source: Space-Track

TITAN 3C TRANSTAGE DEB, 26525 is space debris in HEO originally from a launch on Tue, 21 Dec 1965 UTC launched from the Air Force Eastern Test Range (AFETR). Debris objects in space refer to the collection of defunct objects orbiting the Earth. Examples of debris include non-operational satellites, rocket bodies, and fragments generated from explosions, collisions, or faulty payload assembly.

Loading next visibility...
Identifier
26525, 1965-108AL
Orbit
HEO
Country
Flag of USUS
Related business
Manufacturer
Unknown
Mission
Spacecraft
Bus & Motor
Unknown
Mass
Unknown
Launch date (UTC)
1965-12-21 (60 years ago)
Launch vehicle
Unknown
Launch site
Air Force Eastern Test Range (AFETR)
Object type
Payload
Rocket body
Debris
Shape & HBR
Unknown shape, 0.3 m
Radar Cross Section
Medium (>0.1 m² and <1 m²)

Expand to show TLE details & history
Last TLE update: 2 days ago

TLE from 2 days ago
0 TITAN 3C TRANSTAGE DEB
1 26525U 65108AL  26139.17334581  .00000099  00000-0  16615-2 0  9992
2 26525  26.2005 174.0562 6681214   6.2838   5.3591  2.83292256269905
Epoch: 2026-05-19T04:09Z
TLE epoch observation values (Epoch: 2026-05-19T04:09:37.077Z)
Latitude
16.54883°
Longitude
-88.21095°
Altitude
1,134.326 km
Speed
9.34 km/s
True Right ascension
14h 04m 10s
True Declination
16° 27' 36"
Sunlit
Object was in full shadow at epoch
Visualization orbit readout
Latitude
Unknown
Longitude
Unknown
Altitude
Unknown
Speed
Unknown
Apparent Right ascension
Unknown
Apparent Declination
Unknown
Sunlit
N/A
Visualization observer readout
Local Sidereal Time
20:02:01
Azimuth
Unknown
Elevation
Unknown
Doppler factor
Unknown
Orbital elements
Apogee altitude
28,822.223 km
Perigee altitude
625.098 km
Semi-major axis
21,101.798 km
Eccentricity
0.66812
Inclination
26.2005°
RAAN
174.0562°
Arg. of periapsis
6.2838°
True anomaly
34.45704°
Mean anomaly
5.3591°
Eccentric anomaly
15.74996°
Mean motion
0.70805 °/min
Orbital period
508.44 mins
BSTAR
0.0016615

Documentation

Showing up to 5 results
|